Return to the overview of this dataset or to the list of all FOR816 datasets.


Value filter for entity: Microclimate(id: 437) of dataset: Forest microclimate ECSF tree T2b understorey (z1) (dsid: 654)

Select attribute to work with:



Order by

Aggregate by date/time

on attribute:

Draw graph of subset

    x     y1     y2  
     
Ta_2m (air temperature in 2m)
Huma_2m (Air humidity 2m)
datetime (Date and Time)

Results:

page: 1 / 80 , page size: , max results: 3992

Ta_2m Huma_2m datetime
17.33 102.4 2004-04-04 13:30:00
17.88 102.7 2004-04-04 14:00:00
16.83 102.7 2004-04-04 14:30:00
17.52 102.7 2004-04-04 15:00:00
17.5 103.0 2004-04-04 15:30:00
17.47 103.0 2004-04-04 16:00:00
17.5 103.0 2004-04-04 16:30:00
17.45 103.0 2004-04-04 17:00:00
17.5 102.7 2004-04-04 17:30:00
17.19 102.7 2004-04-04 18:00:00
16.81 103.0 2004-04-04 18:30:00
16.59 103.0 2004-04-04 19:00:00
16.45 103.0 2004-04-04 19:30:00
16.33 102.7 2004-04-04 20:00:00
16.21 103.0 2004-04-04 20:30:00
16.07 103.0 2004-04-04 21:00:00
16.02 102.7 2004-04-04 21:30:00
16.0 102.7 2004-04-04 22:00:00
15.97 103.0 2004-04-04 22:30:00
15.97 103.0 2004-04-04 23:00:00
15.95 103.0 2004-04-04 23:30:00
15.93 103.0 2004-04-05 00:00:00
15.85 103.0 2004-04-05 00:30:00
15.83 103.0 2004-04-05 01:00:00
15.73 103.0 2004-04-05 01:30:00
15.69 103.0 2004-04-05 02:00:00
15.62 103.0 2004-04-05 02:30:00
15.52 103.0 2004-04-05 03:00:00
15.38 103.0 2004-04-05 03:30:00
15.23 103.0 2004-04-05 04:00:00
15.14 102.7 2004-04-05 04:30:00
15.16 103.0 2004-04-05 05:00:00
15.16 103.0 2004-04-05 05:30:00
15.14 103.0 2004-04-05 06:00:00
15.11 103.0 2004-04-05 06:30:00
15.09 103.3 2004-04-05 07:00:00
15.14 103.0 2004-04-05 07:30:00
15.26 103.0 2004-04-05 08:00:00
15.42 103.0 2004-04-05 08:30:00
15.5 103.0 2004-04-05 09:00:00
15.83 103.0 2004-04-05 09:30:00
16.14 102.7 2004-04-05 10:00:00
16.16 102.7 2004-04-05 10:30:00
16.33 101.8 2004-04-05 11:00:00
16.59 102.1 2004-04-05 11:30:00
16.69 101.8 2004-04-05 12:00:00
16.9 101.8 2004-04-05 12:30:00
17.33 100.5 2004-04-05 13:00:00
18.19 101.4 2004-04-05 13:30:00
17.85 98.8 2004-04-05 14:00:00

page: 1 / 80 , max results: 3992


Return to the overview of this dataset or to the list of all FOR816 datasets.



Quick search

  • Publications:
  • Datasets: